Home > Weather > Lexington-Fayette > Past weeks

Flag for USA Past Weather in Lexington-Fayette, Kentucky, USA — Yesterday and Last 2 Weeks

Now
83 °F

Scattered clouds.


Feels Like: 87 °F
Forecast: 67 / 80 °F
Wind: 6 mph from Southwest

Location: Blue Grass Airport

Current Time: Jul 29, 2016 at 2:03:55 PM

Latest Report: Jul 29, 2016 at 12:54 PM


Visibility: 10 mi

Pressure: 29.94 "Hg

Humidity: 65%

Dew Point: 70 °F

Location of Lexington-FayetteLocation

Past Weather in Lexington-Fayette — Graph

°F

Lexington-Fayette Temperature Yesterday

Maximum temperature yesterday: 79 °F (at 5:54 PM)
Minimum temperature yesterday: 71 °F (at 9:54 AM)
Average temperature yesterday: 74 °F

High & Low Weather Summary for the Past Weeks

 TemperatureHumidityPressure
High94 °F (Jul 24, 3:54 PM)97% (Jul 26, 5:03 AM)30.27 "Hg (Jul 26, 5:03 AM)
Low66 °F (Jul 17, 5:54 AM)39% (Jul 21, 1:54 PM)29.87 "Hg (Jul 28, 5:54 PM)
Average79 °F74%30.05 "Hg
* Reported Jul 14 12:54 PM — Jul 29 12:54 PM, Lexington-Fayette, Weather by CustomWeather, © 2016

Note: Actual official high and low records may vary slightly from our data, if they occured in-between our weather recording intervals... More about our weather records

Advertising

Lexington-Fayette Weather History for the Previous 24 Hours

Scroll right to see more
 ConditionsComfort  
Time TempWeatherWind HumidityBarometerVisibility
12:54 PM
Fri, Jul 29
83 °FScattered clouds.6 mph65%29.94 "Hg10 mi
11:54 AM81 °FBroken clouds.7 mph72%29.95 "Hg10 mi
10:54 AM78 °FBroken clouds.9 mph76%29.95 "Hg10 mi
9:54 AM76 °FMostly cloudy.7 mph85%29.95 "Hg10 mi
8:54 AM75 °FLow clouds.9 mph88%29.95 "Hg10 mi
7:54 AM73 °FLow clouds.6 mph90%29.95 "Hg10 mi
6:54 AM71 °FPassing clouds.7 mph93%29.93 "Hg10 mi
5:54 AM71 °FPassing clouds.No wind93%29.92 "Hg10 mi
4:54 AM72 °FPartly cloudy.5 mph91%29.92 "Hg10 mi
3:54 AM71 °FPassing clouds.5 mph93%29.91 "Hg10 mi
2:54 AM71 °FMild.5 mph93%29.90 "Hg10 mi
2:03 AM72 °FPassing clouds.No wind91%29.94 "Hg10 mi
1:54 AM71 °FPassing clouds.3 mph93%29.92 "Hg10 mi
12:54 AM72 °FPassing clouds.5 mph93%29.92 "Hg10 mi
11:54 PM
Thu, Jul 28
73 °FPassing clouds.7 mph90%29.91 "Hg10 mi
10:54 PM73 °FPassing clouds.6 mph90%29.93 "Hg10 mi
9:54 PM74 °FLight rain. Mostly cloudy.8 mph91%29.91 "Hg8 mi
8:54 PM75 °FBroken clouds.5 mph88%29.90 "Hg10 mi
7:54 PM77 °FMostly cloudy.5 mph79%29.90 "Hg10 mi
6:54 PM78 °FPartly sunny.8 mph76%29.88 "Hg10 mi
5:54 PM79 °FScattered clouds.6 mph77%29.87 "Hg10 mi
5:04 PM77 °FMostly cloudy.No wind82%29.90 "Hg10 mi
4:54 PM77 °FPartly sunny.3 mph82%29.88 "Hg10 mi
3:54 PM75 °FLight rain. Cloudy.5 mph88%29.88 "Hg10 mi
2:54 PM74 °FLight rain. Broken clouds.6 mph91%29.90 "Hg10 mi
Weather by CustomWeather, © 2016

See weather overviewHow to use our weather pages